Wind_Speed
54 55 53 54 47 44 37 43 54 63 59 58 62 63 63 65 64 59 39 39 43 48 43 45 45 47 47 48 54 62 55 48 55 56 54 49 47 43 41 36 39 40 38
48 50 50 48 39 36 30 46 53 53 55 59 61 62 65 66 69 47 40 42 45 46 45 44 45 48 50 45 49 52 49 50 51 54 54 54 49 43 43 40 39 44 42
49 48 50 39 33 34 34 46 54 55 55 56 59 61 67 70 54 39 42 44 45 44 41 43 43 48 51 50 45 39 44 50 51 52 54 54 50 45 45 43 44 44 40
45 48 50 39 34 38 42 46 49 53 57 57 61 69 69 54 38 42 43 44 41 39 37 39 40 45 49 52 50 46 46 53 53 53 52 52 53 51 48 46 43 43 44
43 51 46 42 37 37 42 46 52 56 59 65 65 67 54 39 39 44 43 38 35 34 34 37 40 44 44 46 49 49 50 58 59 56 52 50 50 49 47 46 47 44 43
40 38 36 36 29 34 38 47 56 58 63 66 71 52 38 36 43 43 38 35 30 32 35 37 36 39 42 45 49 49 50 55 62 58 54 55 51 52 50 51 45 47 45
44 40 43 34 34 41 45 51 56 61 66 68 52 39 33 41 43 38 34 29 29 33 35 34 35 36 39 41 45 45 48 57 63 61 59 51 46 46 46 46 51 50 50
40 42 44 42 38 40 43 51 54 60 61 47 36 32 39 42 38 32 30 27 28 32 30 30 30 31 33 34 39 39 45 54 60 56 56 56 55 49 50 49 49 47 53
43 41 41 41 40 43 43 42 46 44 39 34 31 36 41 38 36 30 28 27 27 30 27 25 25 33 33 34 29 30 28 37 42 54 50 48 51 45 46 47 46 50 50
41 43 40 41 43 45 24 24 30 33 27 28 36 39 37 38 32 30 28 26 26 28 26 29 36 34 34 34 35 36 36 36 34 42 42 52 49 54 51 50 51 52 51
40 44 45 42 42 41 31 38 24 26 35 33 40 38 39 37 33 30 29 26 27 26 28 29 34 33 37 40 39 41 42 43 44 37 44 44 46 51 51 54 56 55 57
38 42 41 43 42 48 39 32 35 42 46 43 42 41 40 36 31 32 29 23 28 24 32 29 35 34 31 31 36 34 36 33 33 41 45 46 47 48 48 52 54 56 59
43 38 44 44 45 49 47 45 36 38 42 45 44 43 41 38 35 37 31 25 23 23 36 33 33 34 32 31 38 40 39 39 41 42 41 45 48 50 51 52 56 58 59
43 41 46 48 49 46 42 39 41 43 51 52 50 49 46 42 41 40 34 30 26 25 26 34 35 35 37 37 37 38 40 43 43 43 45 47 51 55 57 57 59 60 58
46 45 48 49 48 48 47 39 36 49 54 56 56 53 51 47 43 44 40 35 31 30 27 25 35 35 41 38 38 43 45 45 43 45 49 54 56 57 57 56 58 63 64
55 50 51 52 52 51 50 51 44 48 61 60 60 57 58 53 47 48 45 41 36 35 34 33 31 31 35 40 46 49 51 51 53 54 55 57 61 62 63 59 56 54 51
54 55 54 57 56 53 55 51 46 52 61 65 60 63 61 58 49 48 47 45 42 41 39 38 38 37 35 35 36 39 42 44 44 46 45 45 45 47 49 49 50 51 53
52 55 57 59 60 57 49 50 47 56 63 69 63 66 65 59 51 45 45 45 44 45 46 46 45 43 43 43 43 44 44 45 46 48 50 50 50 51 53 55 56 56 58
60 59 59 62 61 56 49 46 47 56 65 67 68 64 67 64 57 53 49 47 46 47 48 49 49 50 50 50 49 49 52 54 54 55 56 57 57 58 60 61 62 63 65
64 64 65 65 60 54 42 44 49 48 63 66 69 64 69 67 62 59 57 54 53 53 52 53 55 55 56 57 56 57 58 59 60 62 64 65 67 67 68 69 70 73 74
67 66 67 60 59 47 46 40 49 50 52 61 67 67 63 63 67 64 62 62 60 59 59 60 61 61 61 60 63 67 65 64 65 67 68 71 74 76 77 77 78 80 80
68 67 65 59 50 49 53 47 47 52 56 57 57 64 64 58 61 65 64 67 68 67 61 58 60 60 62 62 60 64 67 68 69 71 72 74 77 78 80 83 81 81 85
67 65 64 55 45 54 54 51 50 57 58 56 54 55 51 56 54 58 61 57 57 56 55 57 63 69 69 67 64 68 72 72 74 75 76 76 77 79 81 82 84 85 86
66 62 58 51 49 58 62 58 53 51 62 59 57 54 57 63 62 61 62 58 61 64 58 66 70 73 76 79 75 76 76 77 78 79 77 71 82 85 87 88 90 90 93
64 62 59 56 51 63 66 64 61 61 63 61 63 67 65 72 69 68 66 69 67 65 68 72 78 75 76 80 77 81 84 82 85 88 84 85 93 92 93 96 97 101 103
64 61 57 59 56 67 70 69 68 68 65 68 66 71 73 72 73 77 76 71 74 77 84 84 87 91 90 91 92 90 88 87 89 90 90 91 96 100 103 104 105 106 108
Wind_Direction
244 237 235 224 230 241 254 257 254 259 261 263 275 281 284 285 295 296 256 236 223 220 219 222 227 225 229 229 231 230 236 232 235 240 243 243 243 248 254 259 259 256 266
237 232 224 219 231 245 253 257 252 257 260 269 276 278 281 286 291 279 237 227 221 221 224 229 230 228 230 231 232 232 236 230 230 231 235 243 243 250 250 254 252 258 267
231 221 213 219 237 241 250 253 254 261 269 273 276 278 284 289 282 250 228 219 222 225 231 235 237 236 234 232 230 226 224 231 233 232 230 236 241 242 250 246 258 257 260
217 214 210 217 230 238 241 250 259 263 268 270 276 282 289 281 257 229 222 221 224 229 234 237 240 238 239 237 236 234 229 230 228 233 234 235 240 239 240 252 251 251 259
218 212 218 219 230 242 248 255 256 264 271 276 281 289 283 262 228 219 219 222 226 234 237 240 239 239 237 235 233 233 235 226 229 229 231 233 235 236 242 238 249 257 262
211 206 216 220 237 246 250 260 262 267 273 277 285 285 266 230 217 214 216 223 229 241 245 246 246 243 238 235 232 232 232 226 224 224 227 231 237 242 249 249 250 254 257
205 208 222 225 232 242 247 255 262 267 278 285 282 267 235 215 212 211 217 224 236 244 248 251 248 242 237 232 230 233 231 218 222 226 228 232 237 242 246 249 256 262 261
213 215 221 225 232 247 253 263 271 278 285 283 267 240 217 207 207 212 219 226 238 244 252 249 241 227 216 219 225 229 231 219 223 228 235 237 238 243 251 254 259 263 258
218 223 231 229 237 248 260 282 289 284 276 268 247 218 207 204 210 213 222 229 236 250 249 229 224 197 206 215 221 226 218 225 231 233 233 238 240 242 252 254 256 261 263
224 227 226 229 238 248 255 284 297 298 271 241 229 207 207 211 213 215 223 229 236 253 239 212 197 197 205 211 215 225 227 232 234 233 236 241 245 245 242 247 254 259 264
223 225 228 232 235 238 236 245 251 267 263 244 218 205 213 212 217 217 224 229 236 247 231 215 205 207 211 220 226 228 237 236 237 236 236 236 238 243 247 250 254 260 264
222 225 229 233 237 240 243 220 240 237 251 227 210 210 216 218 218 217 220 230 234 243 221 221 215 212 214 222 216 228 239 229 227 232 237 241 245 247 248 253 258 261 263
220 226 233 232 235 244 231 237 220 229 223 216 212 215 219 220 222 215 215 222 230 241 217 229 226 222 216 221 223 227 231 233 238 235 241 244 244 248 253 255 258 258 265
222 223 230 235 245 246 240 240 245 216 220 214 212 215 219 220 220 214 214 217 224 231 230 219 227 235 223 224 229 237 238 240 242 241 243 245 246 250 255 260 265 268 268
219 225 232 237 243 243 243 245 249 222 220 213 213 214 219 219 221 215 216 218 226 233 235 233 230 225 234 237 235 235 237 242 243 246 247 249 253 258 260 262 264 266 268
226 227 231 235 241 244 247 248 253 229 218 216 214 216 219 222 223 221 222 222 226 233 238 238 238 239 234 228 235 240 242 242 244 248 250 250 253 255 259 261 262 264 266
228 232 235 238 241 242 247 252 250 230 218 216 219 216 222 226 224 225 228 228 230 233 238 243 245 243 245 247 243 240 239 239 241 244 246 247 251 254 258 261 265 266 268
221 231 235 237 241 247 257 256 241 224 217 219 220 220 222 225 225 225 229 232 235 239 242 243 245 246 246 249 251 252 252 251 251 253 254 255 257 257 260 264 266 268 271
222 230 238 243 247 255 261 243 228 219 216 220 222 224 222 225 225 226 229 233 238 241 244 246 248 250 251 250 250 253 255 255 255 256 257 258 259 262 265 267 270 273 274
230 234 239 243 253 258 241 221 219 218 218 219 223 225 224 227 229 230 232 235 239 244 248 252 253 253 254 254 255 255 255 257 259 259 259 260 261 263 265 266 267 269 270
231 235 240 246 251 250 217 215 220 210 218 220 225 228 228 229 232 235 239 241 243 246 251 255 257 257 259 261 260 258 256 258 259 261 262 263 264 265 266 267 267 268 270
230 236 241 246 250 223 218 214 217 218 218 214 222 227 229 231 236 237 243 246 246 248 252 257 258 258 258 260 263 264 261 265 264 263 264 265 266 268 268 267 268 271 270
231 235 242 244 232 219 215 211 220 219 221 217 221 222 226 225 227 232 237 242 242 244 248 259 261 259 264 263 261 255 266 268 269 270 271 270 271 272 274 274 275 275 276
232 233 234 237 231 218 215 218 221 218 223 220 220 220 222 224 232 231 238 230 231 245 241 248 252 257 254 258 259 262 265 267 269 269 271 275 277 277 278 279 278 279 281
229 231 238 236 230 219 217 219 220 216 223 224 223 218 218 225 231 233 231 228 235 241 242 243 241 248 253 255 258 262 264 266 267 268 268 268 272 273 273 275 278 280 281
233 231 231 230 229 221 219 221 223 222 224 223 225 227 229 232 234 234 234 234 234 240 246 249 247 247 252 253 255 257 259 263 265 266 267 267 271 272 273 274 276 279 280
Height
10529 10537 10549 10561 10569 10580 10596 10599 10598 10595 10601 10601 10599 10601 10599 10597 10595 10595 10595 10597 10601 10606 10612 10616 10621 10627 10633 10639 10646 10653 10659 10664 10670 10677 10683 10689 10695 10695 10697 10702 10702 10704 10705
10516 10526 10539 10549 10559 10571 10584 10586 10583 10584 10588 10590 10590 10590 10587 10586 10585 10584 10587 10590 10595 10599 10604 10608 10614 10619 10624 10632 10638 10645 10650 10654 10662 10669 10673 10678 10685 10688 10688 10694 10695 10696 10698
10505 10517 10528 10537 10548 10562 10571 10572 10570 10575 10576 10578 10579 10577 10576 10573 10572 10573 10578 10583 10588 10593 10597 10602 10607 10612 10616 10623 10630 10637 10642 10646 10650 10659 10664 10667 10675 10679 10681 10684 10687 10689 10691
10498 10508 10517 10524 10540 10554 10557 10560 10562 10564 10566 10566 10567 10565 10563 10559 10560 10564 10570 10577 10583 10587 10591 10595 10599 10602 10607 10614 10621 10628 10633 10637 10641 10647 10653 10659 10663 10668 10673 10676 10678 10681 10684
10490 10498 10507 10517 10534 10546 10548 10550 10552 10555 10556 10555 10554 10551 10547 10547 10551 10558 10564 10573 10578 10580 10584 10586 10590 10593 10598 10604 10610 10619 10624 10628 10633 10638 10644 10650 10654 10658 10663 10667 10671 10672 10675
10487 10498 10505 10514 10527 10537 10542 10542 10543 10544 10543 10543 10539 10536 10536 10539 10545 10553 10562 10568 10572 10574 10576 10578 10581 10584 10589 10594 10600 10607 10614 10620 10625 10629 10635 10641 10646 10649 10654 10658 10661 10663 10666
10478 10486 10495 10506 10518 10526 10531 10529 10530 10533 10531 10529 10526 10526 10529 10535 10541 10551 10557 10562 10565 10567 10567 10570 10572 10576 10580 10586 10591 10597 10605 10610 10616 10621 10627 10632 10636 10641 10645 10649 10651 10652 10654
10471 10479 10488 10499 10511 10517 10526 10526 10526 10526 10523 10519 10517 10520 10527 10533 10540 10546 10552 10555 10558 10559 10562 10562 10564 10568 10573 10579 10585 10592 10597 10603 10608 10614 10619 10624 10630 10634 10638 10640 10640 10641 10643
10464 10474 10485 10496 10506 10511 10519 10520 10517 10512 10509 10510 10510 10518 10525 10531 10537 10542 10546 10550 10551 10552 10556 10557 10559 10564 10571 10576 10582 10587 10592 10598 10602 10606 10612 10616 10621 10625 10628 10627 10629 10631 10634
10458 10467 10478 10488 10496 10504 10513 10512 10510 10503 10504 10505 10509 10515 10522 10528 10531 10537 10541 10544 10545 10548 10550 10553 10557 10562 10567 10572 10578 10583 10588 10592 10596 10599 10603 10607 10609 10612 10616 10619 10623 10624 10625
10450 10458 10469 10477 10485 10493 10501 10507 10509 10505 10502 10503 10508 10512 10518 10523 10527 10531 10535 10538 10541 10543 10544 10549 10554 10558 10563 10568 10573 10577 10580 10584 10587 10591 10594 10596 10598 10603 10608 10611 10613 10615 10616
10441 10449 10458 10466 10474 10479 10490 10496 10500 10500 10499 10500 10502 10509 10512 10517 10522 10527 10528 10532 10536 10538 10540 10543 10548 10553 10557 10561 10566 10570 10572 10575 10578 10582 10585 10588 10591 10595 10597 10600 10603 10605 10605
10431 10440 10447 10453 10462 10469 10476 10482 10485 10487 10491 10493 10498 10503 10506 10512 10516 10519 10522 10527 10530 10533 10536 10537 10542 10547 10551 10555 10558 10561 10564 10568 10571 10573 10576 10579 10582 10585 10587 10588 10590 10592 10595
10422 10430 10437 10442 10449 10456 10463 10468 10471 10475 10478 10480 10487 10494 10497 10502 10507 10513 10516 10521 10525 10527 10529 10533 10536 10540 10545 10548 10552 10555 10558 10560 10563 10567 10569 10571 10573 10573 10574 10577 10578 10579 10580
10412 10419 10425 10431 10437 10443 10449 10455 10457 10462 10466 10470 10476 10484 10488 10493 10500 10504 10508 10513 10518 10521 10524 10527 10530 10533 10537 10540 10543 10545 10548 10551 10554 10556 10559 10559 10561 10562 10563 10563 10563 10564 10564
10401 10408 10414 10419 10425 10430 10436 10440 10445 10447 10454 10459 10466 10473 10477 10483 10491 10496 10502 10506 10510 10514 10517 10520 10522 10526 10529 10532 10534 10536 10539 10541 10543 10545 10547 10549 10549 10549 10550 10549 10549 10550 10551
10391 10397 10403 10407 10412 10418 10423 10427 10430 10433 10441 10448 10454 10461 10467 10474 10482 10488 10494 10498 10501 10505 10508 10511 10514 10517 10520 10523 10525 10526 10528 10530 10532 10532 10533 10536 10537 10537 10537 10537 10538 10538 10537
10381 10386 10391 10395 10400 10405 10410 10413 10416 10421 10428 10436 10442 10451 10459 10466 10474 10480 10485 10489 10493 10496 10499 10501 10504 10507 10510 10513 10515 10516 10518 10519 10520 10520 10521 10522 10525 10525 10522 10523 10523 10523 10522
10367 10373 10378 10383 10388 10393 10396 10397 10403 10409 10417 10425 10432 10439 10448 10455 10462 10468 10474 10478 10482 10485 10488 10490 10493 10495 10498 10501 10503 10505 10505 10506 10507 10507 10507 10507 10509 10510 10510 10509 10508 10508 10506
10356 10361 10366 10372 10377 10381 10384 10388 10393 10400 10408 10416 10422 10428 10436 10445 10452 10456 10460 10466 10470 10473 10475 10478 10481 10483 10484 10486 10489 10490 10492 10493 10494 10493 10492 10493 10493 10493 10493 10493 10493 10491 10489
10343 10349 10354 10362 10367 10370 10374 10380 10384 10388 10396 10405 10413 10418 10426 10435 10440 10445 10449 10452 10455 10458 10461 10463 10466 10468 10469 10471 10471 10472 10475 10477 10477 10477 10476 10475 10474 10474 10474 10474 10472 10470 10468
10329 10336 10343 10349 10355 10358 10364 10369 10374 10379 10384 10392 10399 10404 10412 10421 10426 10432 10434 10437 10440 10443 10445 10447 10449 10451 10452 10453 10453 10451 10454 10457 10459 10458 10457 10456 10454 10453 10452 10451 10450 10449 10446
10317 10324 10330 10336 10341 10347 10353 10356 10362 10367 10373 10380 10387 10394 10400 10407 10410 10410 10415 10419 10423 10427 10429 10430 10433 10433 10433 10435 10437 10439 10436 10436 10436 10436 10435 10434 10432 10430 10427 10426 10425 10423 10421
10303 10311 10317 10323 10327 10334 10340 10345 10350 10354 10360 10366 10373 10379 10384 10389 10392 10396 10399 10403 10406 10411 10416 10417 10414 10413 10413 10415 10417 10418 10416 10415 10415 10414 10413 10413 10412 10408 10404 10403 10401 10400 10398
10289 10297 10303 10308 10314 10320 10325 10331 10336 10341 10345 10351 10356 10361 10363 10366 10371 10378 10380 10383 10388 10391 10393 10396 10396 10395 10394 10396 10397 10397 10396 10395 10394 10393 10393 10391 10388 10386 10383 10381 10379 10376 10372
10275 10282 10287 10292 10298 10304 10310 10316 10321 10326 10330 10335 10340 10344 10347 10351 10354 10358 10362 10365 10369 10371 10371 10374 10376 10375 10375 10375 10376 10375 10374 10374 10373 10372 10370 10369 10367 10363 10358 10356 10353 10351 10346